Tracking 28790 objects as of 19-Apr-2024
HD Live streaming from Space Station
objects crossing your sky now

COSMOS 2251 DEB

Track COSMOS 2251 DEB now!
10-day predictions


NORAD ID: 34010
Int'l Code: 1993-036GV
Perigee: 659.5 km
Apogee: 688.2 km
Inclination: 74.0 °
Period: 98.1 minutes
Semi major axis: 7044 km
RCS: 0.038 m2 (small)
Launch date: June 16, 1993
Source: Commonwealth of Independent States (former USSR) (CIS)
Launch site: PLESETSK MISSILE AND SPACE COMPLEX (PKMTR)

Note: This is SATELLITE DEBRIS
Your satellite tracking list
Your tracking list is empty




NASA's NSSDC Master Catalog

Two Line Element Set (TLE):
1 34010U 93036GV  24109.88841265  .00031363  00000-0  54049-2 0  9997
2 34010  74.0207  49.5063 0020395 314.7063  45.2445 14.68242055803136
Source of the keplerian elements: AFSPC